Location: Ariel
(45.9570°N, 122.5700°W)
Time: 02:27:49
(UTC-07:00)

Transit 4A - Pass Details

Date: 25 July 2019
Orbit: 863 x 981 km, 66.8° (Epoch: 19 August)

Event Time Altitude Azimuth Distance (km) Brightness Sun altitude
Exits shadow 01:42:40 53° 176° (S) 1,194 8.0 -24.1°
Maximum altitude 01:44:06 68° 118° (ESE) 1,050 8.0 -24.1°
Drops below altitude 10° 01:50:29 10° 37° (NE) 2,741 11.2 -23.9°
Sets 01:53:04 0° 35° (NE) 3,689 12.1 -23.9°
